Location: Tierra Monte Subdivision
(35.2092°N, 106.4864°W)
Time: 19:41:47
(UTC+00:00)

Cosmos 2237 Rocket - Pass Details

Date: 30 March 2020
Orbit: 833 x 851 km, 71.0° (Epoch: 31 May)

Event Time Altitude Azimuth Distance (km) Brightness Sun altitude
Rises 10:53:05 0° 346° (NNW) 3,404 5.5 -24.8°
Reaches altitude 10° 10:55:42 10° 355° (N) 2,468 4.8 -24.3°
Maximum altitude 11:00:59 39° 63° (ENE) 1,245 3.6 -23.3°
Drops below altitude 10° 11:06:15 10° 132° (SE) 2,466 4.9 -22.3°
Sets 11:08:51 0° 140° (SE) 3,400 5.6 -21.8°
